Regional Weather Roundup
Issued by NWS Charleston, SC

Current Version | Previous Version | Graphics & Text | Print | Product List | Glossary On
Versions: 1 2 3 4 5 6 7 8 9 10 11 12 13 14 15 16 17 18 19 20 21 22 23 24 25 26 27 28 29 30 31 32 33 34 35 36 37 38 39 40 41 42 43 44 45 46 47 48 49 50
370
ASUS42 KCHS 281126
RWRCHS

REGIONAL WEATHER ROUNDUP
NATIONAL WEATHER SERVICE CHARLESTON SC
600 AM EST TUE FEB 28 2017

NOTE: "FAIR" INDICATES FEW OR NO CLOUDS BELOW 12,000 FEET WITH NO
SIGNIFICANT WEATHER AND/OR OBSTRUCTIONS TO VISIBILITY.

NOT ALL STATIONS ARE QUALITY CONTROLLED. USE DATA WITH CAUTION...
ESPECIALLY DEWPOINT OBSERVATIONS.

SCZ027-030-031-034>040-042>050-281200-
...SOUTHEAST SOUTH CAROLINA...

CITY           SKY/WX    TMP DP  RH WIND       PRES   REMARKS
N CHARLESTON   PTCLDY    62  59  90 SE6       30.26F
WATERFRONT PRK   N/A     65  63  93 CALM      30.26S
MOUNT PLEASANT FAIR      61  61 100 CALM      30.28S
JOHNS ISLAND   FAIR      64  64 100 CALM      30.28R
PINOPOLIS        N/A     61  59  94 CALM      30.18R
MONCKS CORNER  PTSUNNY   55  54  94 CALM      30.28R
SUMMERVILLE    CLOUDY    61  59  94 CALM      30.29R
BEAUFORT MCAS  CLOUDY    65  65 100 CALM      30.26S
BEAUFORT ARPT  FAIR      63  63 100 CALM      30.27R FOG
HILTON HEAD IS NOT AVBL
WALTERBORO     CLOUDY    61  61 100 CALM      30.29R
ALLENDALE      PTSUNNY   61  59  94 CALM      30.27R

...SOUTHERN MIDLANDS AND PEE DEE...

CITY           SKY/WX    TMP DP  RH WIND       PRES   REMARKS
GEORGETOWN     FAIR      61  59  94 CALM      30.29R FOG
KINGSTREE      CLOUDY    59  54  82 CALM      30.28S
ORANGEBURG     CLOUDY    60  55  83 N3        30.28R
BARNWELL       CLOUDY    59  57  94 CALM      30.28R
AIKEN          FAIR      50  46  87 CALM      30.32R
MANNING        PTSUNNY   59  54  82 MISG      30.28R
COLUMBIA       CLEAR     59  53  80 CALM      30.27S
SUMTER         CLOUDY    55  51  86 CALM      30.26R
FLORENCE       PTCLDY    56  54  93 E3        30.28F
MYRTLE BEACH   CLOUDY    62  61  96 CALM      30.29S
N MYRTLE BEACH MOCLDY    60  60 100 NE3       30.29S FOG

$$

GAZ063-065-086>088-099>101-113>116-118-119-134>141-150-281200-
...SOUTHEAST GEORGIA...

CITY           SKY/WX    TMP DP  RH WIND       PRES   REMARKS
SAVANNAH ARPT  CLOUDY    63  61  93 N3        30.27R
HUNTER AAF     MOCLDY    63  63 100 CALM      30.24R
FORT STEWART   CLOUDY    63  61  94 CALM      30.24R
STATESBORO     CLOUDY    63  32  31 CALM      30.28R
SYLVANIA       PTSUNNY  N/A N/A N/A CALM      30.28S
CLAXTON        CLOUDY   N/A N/A N/A CALM      30.28R

...CSRA...CENTRAL AND FAR SOUTHEAST GEORGIA...

CITY           SKY/WX    TMP DP  RH WIND       PRES   REMARKS
THOMSON        CLEAR     49  49 100 CALM      30.34R
AUGUSTA-BUSH   PTCLDY    52  51  97 CALM      30.28R FOG
AUGUSTA-DANIEL PTCLDY    58  51  78 CALM      30.29R
SWAINSBORO     FAIR      57  57 100 CALM      30.29R
VIDALIA        CLOUDY    61  61 100 CALM      30.28R
EASTMAN        CLOUDY    57  57  99 CALM      30.31R FOG
HAZLEHURST     CLOUDY    61  61 100 CALM      30.27R
ALMA           MOCLDY    58  58 100 N3        30.26R FOG
WAYCROSS       CLOUDY    64  64 100 CALM      30.26R FOG
JESUP          CLOUDY    64  61  88 CALM      30.27R FOG
BAXLEY         CLOUDY    63  63 100 CALM      30.27R FOG
BRUNSWICK      FOG       61  61 100 CALM      30.26R VSB 1/2
SAINT SIMONS   PTCLDY    60  59  96 CALM      30.25R FOG

$$

SCZ027-028-034-036>038-045-046-048>050-GAZ119-141-281200-
...LAKE AND SUPPLEMENTAL COASTAL OBSERVATIONS...

STATION/POSITION TIME  TEMP    WIND        PRES    WAVE   SWELL
                       AIR SEA DIR/SP/G            HT/PER HT/PER/DIR
                 (UTC) (F)     (DEG/KT/KT) (MB)    (FT/S) (FT/S/D)
WINYAH BAY       1045   62     310/  1     1025.0S
LAKE MURRAY      1020   56        CALM     1024.7S
ACE BASIN NERRS  1045   63        CALM     1025.0R
FORT PULASKI     1100   64 63  130/  4/  5 1024.8
SAPELO ISLAND    1030   62        CALM     1024.0S

$$

ANZ835-935-AMZ111-154-330-350-352-354-370-450-454-472-281200-
...C-MAN AND BUOY OBSERVATIONS...

STATION/POSITION TIME  TEMP    WIND        PRES    WAVE   SWELL
                       AIR SEA DIR/SP/G            HT/PER HT/PER/DIR
                 (UTC) (F)     (DEG/KT/KT) (MB)    (FT/S) (FT/S/D)
BUOY 41004       1050   71 68  190/ 14/ 17 1024.4R   6/ 6   2/110/ 9
BUOY 41008       1050   65 63  130/  8/ 10 1023.9F   4/ 6   3/ 80/ 6
FOLLY BEACH CMAN 1100   66     220/  2/  3 1025.8R
CAPERS NEARSHORE 1008   64 61  240/  6/ 10 1025.1R
FRIPP NEARSHORE  1108   64 62  150/ 12/ 14 1024.3F


STATION/POSITION TIME  TEMP    WIND        PRES    WAVE   SWELL
                       AIR SEA DIR/SP/G            HT/PER HT/PER/DIR
                 (UTC) (F)     (DEG/KT/KT) (MB)    (FT/S) (FT/S/D)
5E ST. MARYS GA  1100      65                N/A     4/ 6
FRYING PAN BUOY  1110   72 71  190/ 17/ 21 1024.8
BUOY 41025       1050   69 71  210/ 16/ 17 1027.0F   4/ 8   2/ 90/ 8
CAPE LOOKOUT NC  1100   61     100/  7/  8 1026.4F
BUOY 41002       1050   69 70  140/ 16/ 19 1027.3F   4/ 6   2/ 80/ 9
BUOY 41010       NOT AVBL
ST AUGUSTINE FL  1100   66 68  190/  3/  3 1025.0R


$$




USA.gov is the U.S. government's official web portal to all federal, state and local government web resources and services.